Powrót do katalogu

CZ-4 R/B

AktywnySSO
NORAD 20791·ROCKET BODY·🇨🇳 China

Wystrzelony Sep 3, 1990 z Taiyuan Satellite Launch Center

Loading…

Następne Przeloty (najbliższe 24 godziny)

TLE

ŚwieżeSource: Space-Track

Epoka: Sep 14, 2026, 09:45 UTC

1 20791U 90081D   26257.40692758 -.00000020  00000-0  17525-4 0  9997
2 20791  99.0431 219.0829 0052588 183.4275 329.0177 13.93059707831012

Śledź CZ-4 R/B w czasie rzeczywistym z AllMySat

Download on the App Store